Weather History for KAAF - June, 2013

Change the Weather History Date:

Sunday, June 30, 2013

  Actual Average Record
Temperature  
Mean Temperature 82 °F 82 °F  
Max Temperature 88 °F 90 °F 96 °F (1959)
Min Temperature 75 °F 73 °F 65 °F (1981)
Cooling Degree Days 17    
Month to date cooling degree days 506  
Year to date cooling degree days 887  
Since 1 June cooling degree days 506  
Growing Degree Days 31 (Base 50)    
Moisture  
Dew Point 73 °F    
Average Humidity 73    
Maximum Humidity 87    
Minimum Humidity 59    
Precipitation  
Precipitation 0.23 in 0.22 in 1.48 in (1993)
Month to date precipitation 3.88 5.27  
Year to date precipitation 23.16 24.65  
Sea Level Pressure  
Sea Level Pressure 29.76 in    
Wind  
Wind Speed 8 mph (SW)    
Max Wind Speed 24 mph    
Max Gust Speed 28 mph    
Visibility 9 miles    
Events Rain    
T = Trace of Precipitation, MM = Missing Value Source: NWS Daily Summary

Daily Weather History Graph

Daily Weather History Graph

Search for Another Location

Airport or City:

Trip Planner

Search our weather history database for the weather conditions in past years. The results will help you decide how hot, cold, wet, or windy it might be!

Date:

Astronomy

Jun. 30, 2013 Rise Set
Actual Time 6:42 AM EDT 8:44 PM EDT
Civil Twilight 6:15 AM EDT 9:11 PM EDT
Nautical Twilight 5:42 AM EDT 9:44 PM EDT
Astronomical Twilight 5:07 AM EDT 10:20 PM EDT
Moon 1:19 AM EDT (6/30) 2:17 PM EDT (6/30)
Length of Visible Light 14h 56m
Length of Day
14h 01m
Last Quarter, 45% of the Moon is Illuminated
Jun 30
Last Quarter
Jul 8
New
Jul 15
First Quarter
Jul 22
Full
Jul 29
Last Quarter

Hourly Weather History & Observations

Time (EDT) Temp. Heat Index Dew Point Humidity Pressure Visibility Wind Dir Wind Speed Gust Speed Precip Events Conditions
12:53 AM 82.9 °F 90.2 °F 75.0 °F 77% 29.77 in 10.0 mi SW 12.7 mph - N/A   Clear
1:53 AM 82.9 °F 90.2 °F 75.0 °F 77% 29.77 in 10.0 mi SW 11.5 mph - N/A   Scattered Clouds
2:36 AM 82.4 °F 89.5 °F 75.2 °F 79% 29.76 in 10.0 mi SW 15.0 mph 23.0 mph N/A   Mostly Cloudy
2:53 AM 82.9 °F 90.8 °F 75.9 °F 79% 29.75 in 10.0 mi SW 16.1 mph 21.9 mph N/A   Mostly Cloudy
3:50 AM 78.8 °F - 71.6 °F 78% 29.75 in 2.5 mi WSW 12.7 mph 19.6 mph 0.02 in Rain Heavy Rain
3:53 AM 79.0 °F - 72.0 °F 79% 29.75 in 2.0 mi WSW 15.0 mph 20.7 mph 0.07 in Rain Heavy Rain
4:08 AM 78.8 °F - 73.4 °F 83% 29.74 in 7.0 mi SSW 11.5 mph - 0.08 in Rain Light Rain
4:53 AM 79.0 °F - 72.0 °F 79% 29.75 in 10.0 mi SSW 12.7 mph 19.6 mph 0.08 in   Mostly Cloudy
5:53 AM 80.1 °F 84.2 °F 73.0 °F 79% 29.75 in 10.0 mi SSW 10.4 mph - N/A   Clear
6:53 AM 81.0 °F 86.2 °F 73.9 °F 79% 29.76 in 10.0 mi SW 15.0 mph - 0.00 in Rain Light Rain
7:53 AM 81.0 °F 85.2 °F 72.0 °F 74% 29.78 in 10.0 mi SW 9.2 mph - 0.00 in Rain Light Rain
8:53 AM 84.0 °F 91.2 °F 73.9 °F 72% 29.77 in 10.0 mi SW 6.9 mph - 0.00 in   Clear
9:26 AM 84.2 °F 90.9 °F 73.4 °F 70% 29.77 in 10.0 mi West 15.0 mph 20.7 mph N/A   Mostly Cloudy
9:37 AM 82.4 °F 87.2 °F 71.6 °F 70% 29.78 in 10.0 mi West 12.7 mph - N/A   Scattered Clouds
9:53 AM 82.0 °F 86.3 °F 71.1 °F 69% 29.79 in 10.0 mi WSW 9.2 mph - N/A   Partly Cloudy
10:53 AM 82.9 °F 88.0 °F 72.0 °F 69% 29.78 in 10.0 mi SSW 6.9 mph - N/A   Mostly Cloudy
11:53 AM 87.1 °F 93.6 °F 72.0 °F 61% 29.79 in 10.0 mi SSW 10.4 mph - N/A   Partly Cloudy
12:53 PM 80.1 °F 84.5 °F 73.9 °F 81% 29.78 in 8.0 mi SW 3.5 mph - 0.01 in Rain Light Rain
1:53 PM 82.9 °F 88.8 °F 73.0 °F 72% 29.76 in 10.0 mi West 6.9 mph - 0.00 in   Clear
2:53 PM 86.0 °F 93.0 °F 73.0 °F 65% 29.75 in 10.0 mi SW 9.2 mph - N/A   Clear
3:53 PM 84.0 °F 90.2 °F 73.0 °F 69% 29.74 in 10.0 mi SSW 10.4 mph 18.4 mph N/A   Clear
4:53 PM 86.0 °F 93.0 °F 73.0 °F 65% 29.75 in 10.0 mi SSW 11.5 mph - N/A   Mostly Cloudy
5:53 PM 82.9 °F 89.4 °F 73.9 °F 74% 29.74 in 10.0 mi SSW 12.7 mph - N/A   Mostly Cloudy
6:17 PM 82.4 °F 87.2 °F 71.6 °F 70% 29.75 in 10.0 mi SW 17.3 mph 20.7 mph 0.00 in Rain Light Rain
6:22 PM 80.6 °F 85.4 °F 73.4 °F 79% 29.76 in 2.5 mi West 20.7 mph 27.6 mph 0.00 in Rain Light Rain
6:29 PM 78.8 °F - 73.4 °F 83% 29.77 in 1.5 mi WNW 11.5 mph 27.6 mph 0.06 in Rain Heavy Rain
6:33 PM 77.0 °F - 71.6 °F 83% 29.76 in 3.0 mi NW 13.8 mph 20.7 mph 0.07 in Rain Light Rain
6:53 PM 75.0 °F - 71.1 °F 87% 29.75 in 9.0 mi NNW 6.9 mph - 0.07 in Rain Light Rain
7:53 PM 78.1 °F - 70.0 °F 76% 29.75 in 10.0 mi Calm Calm - 0.00 in   Clear
8:53 PM 75.9 °F - 72.0 °F 87% 29.77 in 10.0 mi Calm Calm - N/A   Partly Cloudy
9:53 PM 75.9 °F - 72.0 °F 87% 29.79 in 10.0 mi Calm Calm - N/A   Partly Cloudy
10:53 PM 75.9 °F - 72.0 °F 87% 29.78 in 10.0 mi Calm Calm - N/A   Clear
11:53 PM 75.9 °F - 72.0 °F 87% 29.79 in 10.0 mi Calm Calm - N/A   Scattered Clouds